Voltar ao catálogo

STARLINK-36109

AtivoComunicaçõesVLEO
NORAD 66943·PAYLOAD·🇺🇸 United States

Lançado Dec 7, 2025 de Vandenberg Space Force Base

Loading…

Próximas Passagens (próximas 24 horas)

TLE

AtualizadoSource: CelesTrak SupGP

Época: Sep 15, 2026, 02:32 UTC

1 66943C 25286U   26258.10604167 -.00083775  00000+0 -24751-2 0  2589
2 66943  53.1572 194.7559 0001267  93.8651 203.7588 15.34433269    15

Acompanhe STARLINK-36109 em tempo real com AllMySat

Download on the App Store